Location: Caltech
(34.1382°N, 118.1253°W)
Time: 18:26:36
(UTC-08:00)

Iridium 91 - Visible Passes

Search period start: 02 December 2016 00:00
Search period end: 12 December 2016 00:00
Orbit: 776 x 779 km, 86.4° (Epoch: 02 December)

Date Brightness Start Highest point End Pass type
(mag) Time Alt. Az. Time Alt. Az. Time Alt. Az.
05 Dec 8.6 05:49:27 10° ENE 05:51:04 11° ENE 05:52:41 10° E visible
08 Dec 8.2 05:47:56 10° NE 05:51:21 17° ENE 05:54:45 10° ESE visible
08 Dec 7.7 18:39:35 10° SSE 18:40:04 12° SSE 18:40:04 12° SSE visible
09 Dec 7.5 18:07:18 10° SE 18:07:41 11° SE 18:07:41 11° SE visible
09 Dec 7.8 19:46:46 10° SSW 19:48:13 18° SW 19:48:13 18° SW visible
10 Dec 6.6 06:20:11 10° N 06:25:14 49° E 06:30:16 10° SSE visible
10 Dec 6.6 19:12:44 10° S 19:15:52 37° SSW 19:15:52 37° SSW visible
11 Dec 7.8 05:47:17 10° NNE 05:51:35 26° E 05:55:51 10° SE visible
11 Dec 5.7 18:39:19 10° SSE 18:43:34 53° SE 18:43:34 53° SE visible
11 Dec 8.5 20:23:25 10° W 20:24:08 11° W 20:24:08 11° W visible
